When you browse on this site, cookies collect data to enhance your experience and personalize the content and advertising you see.
Visit our Privacy Policy to learn more. By continuing to use the site, you agree to this use of cookies and data.
  • In Spain
  • List of Countries
  • For 7 days
  • Water Temperature
  • Satellite Maps
  • Weather Map
  • Weather Widgets
  • user-avatar
    Login

    Hourly Weather Fier

    Today, 20 March, Wednesday

    Time Temperature Precipitation Wind Pressure Humidity
    00:00 +12°C° 0 mm 1 mps 763 mmHg 88%
    01:00 +12°C° 0 mm 1 mps 763 mmHg 88%
    02:00 +12°C° 0 mm 1 mps 763 mmHg 87%
    03:00 +12°C° 0 mm 1 mps 763 mmHg 86%
    04:00 +12°C° 0 mm 1 mps 763 mmHg 86%
    05:00 +12°C° 0 mm 1 mps 763 mmHg 83%
    06:00 +13°C° 0 mm 1 mps 763 mmHg 80%
    07:00 +14°C° 0 mm 1 mps 763 mmHg 77%
    08:00 +16°C° 0 mm 2 mps 763 mmHg 69%
    09:00 +18°C° 0 mm 2 mps 763 mmHg 61%
    10:00 +20°C° 0 mm 2 mps 763 mmHg 52%
    11:00 +21°C° 0 mm 2 mps 763 mmHg 49%
    12:00 +22°C° 0 mm 3 mps 763 mmHg 46%
    13:00 +24°C° 0 mm 3 mps 764 mmHg 43%
    14:00 +22°C° 0 mm 4 mps 763 mmHg 48%
    15:00 +21°C° 0 mm 5 mps 763 mmHg 52%
    16:00 +20°C° 0 mm 5 mps 763 mmHg 56%
    17:00 +19°C° 0.2 mm 4 mps 764 mmHg 62%
    18:00 +17°C° 0.2 mm 3 mps 764 mmHg 67%
    19:00 +16°C° 0.2 mm 2 mps 764 mmHg 73%
    20:00 +16°C° 0 mm 2 mps 765 mmHg 70%
    21:00 +16°C° 0 mm 2 mps 765 mmHg 67%
    22:00 +16°C° 0 mm 2 mps 765 mmHg 65%
    23:00 +15°C° 0 mm 2 mps 766 mmHg 63%

    Tomorrow, 21 March, Thursday

    Time Temperature Precipitation Wind Pressure Humidity
    00:00 +14°C° 0 mm 3 mps 766 mmHg 62%
    01:00 +14°C° 0 mm 3 mps 766 mmHg 61%
    02:00 +13°C° 0 mm 3 mps 766 mmHg 62%
    03:00 +13°C° 0 mm 3 mps 766 mmHg 63%
    04:00 +12°C° 0 mm 3 mps 766 mmHg 64%
    05:00 +13°C° 0 mm 3 mps 766 mmHg 65%
    06:00 +13°C° 0 mm 3 mps 767 mmHg 65%
    07:00 +13°C° 0 mm 3 mps 767 mmHg 65%
    08:00 +15°C° 0 mm 4 mps 767 mmHg 58%
    09:00 +19°C° 0 mm 4 mps 767 mmHg 51%
    10:00 +21°C° 0 mm 4 mps 767 mmHg 44%
    11:00 +22°C° 0 mm 4 mps 767 mmHg 42%
    12:00 +23°C° 0 mm 4 mps 766 mmHg 39%
    13:00 +25°C° 0 mm 3 mps 766 mmHg 36%
    14:00 +23°C° 0 mm 4 mps 766 mmHg 38%
    15:00 +23°C° 0 mm 4 mps 766 mmHg 39%
    16:00 +22°C° 0 mm 4 mps 766 mmHg 40%
    17:00 +21°C° 0 mm 4 mps 766 mmHg 44%
    18:00 +19°C° 0 mm 4 mps 766 mmHg 47%
    19:00 +17°C° 0 mm 4 mps 766 mmHg 51%
    20:00 +15°C° 0 mm 4 mps 767 mmHg 53%
    21:00 +14°C° 0 mm 4 mps 767 mmHg 56%
    22:00 +14°C° 0 mm 4 mps 768 mmHg 58%
    23:00 +13°C° 0 mm 3 mps 768 mmHg 60%

    Day after tomorrow, 22 March, Friday

    Time Temperature Precipitation Wind Pressure Humidity
    00:00 +13°C° 0 mm 3 mps 768 mmHg 61%
    01:00 +13°C° 0 mm 3 mps 768 mmHg 63%
    02:00 +12°C° 0 mm 3 mps 768 mmHg 64%
    03:00 +13°C° 0 mm 2 mps 768 mmHg 65%
    04:00 +13°C° 0 mm 2 mps 768 mmHg 66%
    05:00 +13°C° 0 mm 2 mps 768 mmHg 67%
    06:00 +12°C° 0 mm 3 mps 768 mmHg 67%
    07:00 +13°C° 0 mm 3 mps 768 mmHg 68%
    08:00 +16°C° 0 mm 3 mps 768 mmHg 60%
    09:00 +18°C° 0 mm 3 mps 768 mmHg 52%
    10:00 +20°C° 0 mm 3 mps 768 mmHg 44%
    11:00 +21°C° 0 mm 3 mps 768 mmHg 41%
    12:00 +22°C° 0 mm 3 mps 767 mmHg 39%
    13:00 +24°C° 0 mm 2 mps 767 mmHg 36%
    14:00 +22°C° 0 mm 3 mps 767 mmHg 38%
    15:00 +22°C° 0 mm 3 mps 767 mmHg 40%
    16:00 +22°C° 0 mm 4 mps 766 mmHg 42%
    17:00 +20°C° 0 mm 4 mps 766 mmHg 49%
    18:00 +18°C° 0 mm 4 mps 767 mmHg 55%
    19:00 +15°C° 0 mm 4 mps 767 mmHg 62%
    20:00 +14°C° 0 mm 3 mps 767 mmHg 62%
    21:00 +14°C° 0 mm 3 mps 767 mmHg 61%
    22:00 +13°C° 0 mm 3 mps 767 mmHg 60%
    23:00 +13°C° 0 mm 3 mps 767 mmHg 60%

    23 March, Saturday

    Time Temperature Precipitation Wind Pressure Humidity
    00:00 +13°C° 0 mm 2 mps 767 mmHg 60%
    01:00 +13°C° 0 mm 2 mps 767 mmHg 60%
    02:00 +13°C° 0 mm 2 mps 767 mmHg 61%
    03:00 +13°C° 0 mm 2 mps 767 mmHg 63%
    04:00 +12°C° 0 mm 2 mps 767 mmHg 64%
    05:00 +13°C° 0 mm 2 mps 767 mmHg 64%
    06:00 +13°C° 0 mm 2 mps 767 mmHg 65%
    07:00 +14°C° 0 mm 2 mps 767 mmHg 65%
    08:00 +16°C° 0 mm 2 mps 767 mmHg 58%
    09:00 +19°C° 0 mm 1 mps 767 mmHg 50%
    10:00 +21°C° 0 mm 1 mps 766 mmHg 43%
    11:00 +21°C° 0 mm 2 mps 766 mmHg 41%
    12:00 +22°C° 0 mm 3 mps 766 mmHg 40%
    13:00 +24°C° 0 mm 3 mps 765 mmHg 39%
    14:00 +22°C° 0 mm 3 mps 765 mmHg 43%
    15:00 +21°C° 0 mm 3 mps 765 mmHg 48%
    16:00 +20°C° 0 mm 4 mps 764 mmHg 52%
    17:00 +18°C° 0 mm 3 mps 765 mmHg 58%
    18:00 +16°C° 0 mm 2 mps 765 mmHg 64%
    19:00 +14°C° 0 mm 1 mps 765 mmHg 71%
    20:00 +14°C° 0 mm 1 mps 765 mmHg 71%
    21:00 +14°C° 0 mm 1 mps 766 mmHg 71%
    22:00 +13°C° 0 mm 0 mps 766 mmHg 72%
    23:00 +13°C° 0 mm 1 mps 766 mmHg 71%

    24 March, Sunday

    Time Temperature Precipitation Wind Pressure Humidity
    00:00 +13°C° 0 mm 1 mps 765 mmHg 71%
    01:00 +13°C° 0 mm 1 mps 765 mmHg 71%
    02:00 +13°C° 0 mm 1 mps 765 mmHg 69%
    03:00 +12°C° 0 mm 1 mps 765 mmHg 67%
    04:00 +12°C° 0 mm 1 mps 765 mmHg 66%
    05:00 +13°C° 0 mm 1 mps 765 mmHg 64%
    06:00 +14°C° 0 mm 1 mps 765 mmHg 62%
    07:00 +14°C° 0 mm 1 mps 765 mmHg 60%
    08:00 +16°C° 0 mm 1 mps 765 mmHg 54%
    09:00 +19°C° 0 mm 1 mps 765 mmHg 47%
    10:00 +21°C° 0 mm 1 mps 765 mmHg 41%
    11:00 +21°C° 0 mm 2 mps 764 mmHg 43%
    12:00 +21°C° 0 mm 3 mps 764 mmHg 44%
    13:00 +22°C° 0 mm 4 mps 764 mmHg 46%
    14:00 +21°C° 0 mm 4 mps 763 mmHg 50%
    15:00 +20°C° 0 mm 4 mps 763 mmHg 54%
    16:00 +19°C° 0 mm 4 mps 762 mmHg 58%
    17:00 +18°C° 0 mm 3 mps 762 mmHg 65%
    18:00 +16°C° 0 mm 2 mps 763 mmHg 72%
    19:00 +15°C° 0 mm 1 mps 763 mmHg 79%
    20:00 +14°C° 0 mm 1 mps 763 mmHg 79%
    21:00 +14°C° 0 mm 1 mps 763 mmHg 79%
    22:00 +13°C° 0 mm 1 mps 763 mmHg 79%
    23:00 +13°C° 0 mm 1 mps 763 mmHg 78%

    25 March, Monday

    Time Temperature Precipitation Wind Pressure Humidity
    00:00 +13°C° 0 mm 1 mps 762 mmHg 77%
    01:00 +12°C° 0 mm 0 mps 762 mmHg 77%
    02:00 +12°C° 0 mm 0 mps 762 mmHg 77%
    03:00 +11°C° 0 mm 0 mps 762 mmHg 78%
    04:00 +11°C° 0 mm 0 mps 762 mmHg 79%
    05:00 +13°C° 0 mm 1 mps 762 mmHg 77%
    06:00 +14°C° 0 mm 1 mps 762 mmHg 74%
    07:00 +14°C° 0 mm 1 mps 762 mmHg 72%
    08:00 +16°C° 0 mm 1 mps 762 mmHg 68%
    09:00 +17°C° 0 mm 2 mps 762 mmHg 63%
    10:00 +19°C° 0 mm 2 mps 761 mmHg 59%
    11:00 +19°C° 0 mm 3 mps 761 mmHg 59%
    12:00 +20°C° 0 mm 3 mps 761 mmHg 59%
    13:00 +20°C° 0 mm 4 mps 760 mmHg 58%
    14:00 +20°C° 0 mm 4 mps 760 mmHg 61%
    15:00 +19°C° 0 mm 4 mps 759 mmHg 64%
    16:00 +19°C° 0 mm 3 mps 759 mmHg 66%
    17:00 +17°C° 0 mm 3 mps 759 mmHg 74%
    18:00 +15°C° 0 mm 2 mps 759 mmHg 81%
    19:00 +14°C° 0 mm 1 mps 759 mmHg 89%
    20:00 +13°C° 0 mm 1 mps 759 mmHg 89%
    21:00 +13°C° 0 mm 1 mps 759 mmHg 90%
    22:00 +13°C° 0 mm 1 mps 759 mmHg 90%
    23:00 +12°C° 0 mm 1 mps 759 mmHg 89%
    Show more